sat.trackr.live / text

‹ back to catalog

STARLINK-32748

NORAD 62524 · 2025-004P

PAYLOAD ACTIVE UNKNOWN

§ Identity

Operator
Country
US
Launch date
2025-01-08
Launch site
AFETR
Launch vehicle
Mass (kg)
RCS (m²)

Purposes: comms

External: N2YO · Heavens-Above · Gunter

§ Orbital elements

Epoch: 2026-05-25T00:21:42.528384Z

Period
94.27 min
Inclination
42.9994°
Eccentricity
0.0001452
Mean motion
15.27594715 rev/d
Perigee alt
482.0 km
Apogee alt
484.0 km
Semi-major
6,861.1 km
B*
8.2879e-4
RAAN
148.6497°
Arg perigee
269.9343°
Mean anomaly
90.1343°
Rev number
7,813

§ Raw data

STARLINK-327481 62524U 25004P   26145.01507556  .00022625  00000+0  82879-3 0  99902 62524  42.9994 148.6497 0001452 269.9343  90.1343 15.27594715 78130

JSON: /api/v1/satellites/62524 · /tle

For live sub-satellite position, see the globe view (requires WebGL).

§ Visibility from observer

Set your observer location to see the next 7 days of passes ≥ 10°. The values pass through the URL so the page stays shareable.

No JS? Fill the form by hand. The geolocation button needs JavaScript.